Weather WX

World > North America > United States > Missouri

Bethel, Missouri Regional Weather

Lat: 39.88N, Lon: 92.02W
Wx Zone: MOZ026
Warning FLW WEATHER ALERT - (More Info. Click Here) Warning
Feedback

Bethel, MO Regional Weather

Expires:201906201100;;779301
ASUS43 KLSX 201007
RWRMO 

WEATHER SUMMARY FOR MISSOURI
NATIONAL WEATHER SERVICE SPRINGFIELD MO
500 AM CDT THU JUN 20 2019

NOTE: "FAIR" INDICATES FEW OR NO CLOUDS BELOW 12,000 FEET WITH NO
       SIGNIFICANT WEATHER AND/OR OBSTRUCTIONS TO VISIBILITY.
       CURRENT SKY AND/OR WEATHER CONDITIONS ARE NOT AVAILABLE FOR
       CHILLICOTHE AND FARMINGTON.


MOZ001>031-035>038-043-044-053-054-201100-
...NORTHERN AND WESTERN MISSOURI...
  
CITY           SKY/WX    TMP DP  RH WIND       PRES   REMARKS
KANSAS CTY INT CLEAR     60  59  96 S6        29.74S                  
KANSAS C DTWN  CLEAR     66  61  84 CALM      29.73S                  
LEE'S SUMMIT   CLEAR     63  60  90 CALM      29.75R                  
ST JOSEPH      CLEAR     62  61  96 S5        29.74R                  
CHILLICOTHE      N/A     62  62 100 CALM      29.74F                  
KIRKSVILLE     CLOUDY    64  64 100 MISG      29.74S FOG              
     
$$

SKY/WX - Weather  TMP - Temperature  DP - Dew Point  RH - Relative Humidity
WIND - Wind Direction/Speed PRES - Barometric Pressure VSB - Visibility
WCI - Wind Chill Index E13G22 Wind - East Wind 13 mph/Gusts of 22 mph